TimeCDT,TemperatureF,Dew PointF,Humidity,Sea Level PressureIn,VisibilityMPH,Wind Direction,Wind SpeedMPH,Gust SpeedMPH,PrecipitationIn,Events,Conditions,WindDirDegrees,DateUTC
12:53 AM,73.0,70.0,90,30.01,10.0,Calm,Calm,-,N/A,,Clear,0,2013-08-20 05:53:00
1:53 AM,71.1,69.1,93,29.99,10.0,Calm,Calm,-,N/A,,Clear,0,2013-08-20 06:53:00
2:53 AM,68.0,68.0,100,29.99,2.5,Calm,Calm,-,N/A,,Clear,0,2013-08-20 07:53:00
3:05 AM,69.8,68.0,94,29.98,10.0,Calm,Calm,-,N/A,,Clear,0,2013-08-20 08:05:00
3:53 AM,68.0,66.9,96,30.00,10.0,Calm,Calm,-,N/A,,Clear,0,2013-08-20 08:53:00
4:03 AM,68.0,66.2,94,29.99,1.8,Calm,Calm,-,N/A,,Clear,0,2013-08-20 09:03:00
4:11 AM,66.2,66.2,100,29.99,10.0,Calm,Calm,-,N/A,,Clear,0,2013-08-20 09:11:00
4:53 AM,69.1,68.0,96,30.00,10.0,Calm,Calm,-,N/A,,Clear,0,2013-08-20 09:53:00
5:53 AM,66.9,66.0,97,30.01,8.0,Calm,Calm,-,N/A,,Clear,0,2013-08-20 10:53:00
6:53 AM,68.0,66.9,96,30.02,7.0,Calm,Calm,-,N/A,,Clear,0,2013-08-20 11:53:00
7:53 AM,71.1,70.0,96,30.04,8.0,Calm,Calm,-,N/A,,Clear,0,2013-08-20 12:53:00
8:53 AM,78.1,71.1,79,30.05,10.0,Calm,Calm,-,N/A,,Partly Cloudy,0,2013-08-20 13:53:00
9:53 AM,82.0,72.0,71,30.06,10.0,ENE,3.5,-,N/A,,Clear,70,2013-08-20 14:53:00
10:53 AM,84.9,72.0,65,30.06,10.0,East,6.9,-,N/A,,Partly Cloudy,80,2013-08-20 15:53:00
11:53 AM,86.0,71.1,61,30.05,10.0,Variable,5.8,-,N/A,,Partly Cloudy,0,2013-08-20 16:53:00
12:53 PM,90.0,72.0,55,30.04,10.0,NNE,6.9,-,N/A,,Partly Cloudy,30,2013-08-20 17:53:00
1:53 PM,90.0,70.0,52,30.02,10.0,ENE,3.5,-,N/A,,Scattered Clouds,60,2013-08-20 18:53:00
2:53 PM,82.9,73.0,72,30.03,10.0,SE,10.4,17.3,N/A,,Overcast,140,2013-08-20 19:53:00
3:01 PM,77.0,73.4,89,30.03,1.5,SSE,20.7,27.6,0.10,Rain-Thunderstorm,Heavy Rain,160,2013-08-20 20:01:00
3:07 PM,75.2,73.4,94,30.05,0.5,South,15.0,27.6,0.33,Fog-Rain-Thunderstorm,Heavy Thunderstorms and Rain,170,2013-08-20 20:07:00
3:13 PM,73.4,73.4,100,30.06,0.2,SE,17.3,24.2,0.66,Fog-Rain-Thunderstorm,Heavy Thunderstorms and Rain,140,2013-08-20 20:13:00
3:21 PM,73.4,73.4,100,30.06,0.5,SSE,11.5,21.9,0.99,Fog-Rain-Thunderstorm,Heavy Thunderstorms and Rain,150,2013-08-20 20:21:00
3:31 PM,73.4,73.4,100,30.05,0.5,SSE,11.5,-,1.31,Fog-Rain-Thunderstorm,Heavy Thunderstorms and Rain,150,2013-08-20 20:31:00
3:51 PM,73.4,73.4,100,30.04,1.0,ESE,6.9,-,1.70,Rain-Thunderstorm,Heavy Thunderstorms and Rain,120,2013-08-20 20:51:00
3:53 PM,73.9,73.0,97,30.05,1.2,ESE,6.9,-,1.71,Rain-Thunderstorm,Heavy Thunderstorms and Rain,120,2013-08-20 20:53:00
4:00 PM,73.4,73.4,100,30.03,2.5,East,5.8,-,0.03,Rain,Heavy Rain,80,2013-08-20 21:00:00
4:30 PM,75.2,73.4,94,30.03,7.0,SSE,6.9,-,0.08,Rain,Light Rain,150,2013-08-20 21:30:00
4:53 PM,73.9,73.0,97,30.03,5.0,South,4.6,-,0.11,Rain,Rain,170,2013-08-20 21:53:00
5:53 PM,75.9,73.9,94,30.01,10.0,SSE,3.5,-,0.02,,Partly Cloudy,150,2013-08-20 22:53:00
6:53 PM,77.0,73.0,88,30.01,10.0,SE,5.8,-,N/A,,Clear,130,2013-08-20 23:53:00
7:53 PM,75.9,73.0,91,30.02,10.0,East,4.6,-,N/A,,Clear,100,2013-08-21 00:53:00
8:53 PM,75.9,73.0,91,30.02,10.0,ESE,4.6,-,N/A,,Clear,110,2013-08-21 01:53:00
9:53 PM,75.0,73.0,94,30.03,10.0,Calm,Calm,-,N/A,,Clear,0,2013-08-21 02:53:00
10:53 PM,73.0,72.0,96,30.04,9.0,Calm,Calm,-,N/A,,Clear,0,2013-08-21 03:53:00
11:53 PM,72.0,72.0,100,30.05,7.0,SSE,5.8,-,N/A,,Clear,150,2013-08-21 04:53:00